Location: Spring Creek
(38.2870°N, 100.2160°W)
Time: 21:50:07
(UTC+00:00)

SPOT 3 Rocket - Pass Details

Date: 08 May 2021
Orbit: 779 x 794 km, 98.7° (Epoch: 21 June)

Event Time Altitude Azimuth Distance (km) Brightness Sun altitude
Exits shadow 03:02:32 23° 138° (SE) 1,619 4.6 -15.2°
Maximum altitude 03:05:33 52° 72° (ENE) 972 3.8 -15.6°
Drops below altitude 10° 03:10:33 10° 357° (N) 2,342 6.6 -16.4°
Sets 03:12:55 0° 353° (N) 3,273 7.5 -16.8°
